This demonstration page uses our WeatherBlox Daily Observations layout. Learn more.

Left ArrowRight Arrow

Hourly Observations for April 28, 2019

Temp ( °F °C ) Dew Point ( °F °C ) Humidity (%) Winds ( mph kmh ) Pressure ( in mb ) Visibility ( mi km ) Precip ( " mm )
12:51 am 00:51 Clear 48 8.9 34 1.1 58 58 N 5 7 29.91 1013 10 16 0.00 0.00
1:51 am 01:51 Clear 48 8.9 34 1.1 58 58 N 5 7 29.92 1013 10 16 0.00 0.00
2:51 am 02:51 Clear 48 8.9 33 0.6 56 56 N 5 7 29.92 1013 10 16 0.00 0.00
3:51 am 03:51 Mostly Clear 48 8.9 34 1.1 58 58 NW 3 6 29.94 1014 10 16 0.00 0.00
4:51 am 04:51 Cloudy 47 8.3 36 2.2 66 66 Calm 29.93 1014 10 16 0.00 0.00
5:51 am 05:51 Cloudy 46 7.8 35 1.7 66 66 Calm 29.94 1014 10 16 0.00 0.00
6:51 am 06:51 Cloudy 48 8.9 36 2.2 63 63 Calm 29.95 1014 10 16 0.00 0.00
7:51 am 07:51 Cloudy 49 9.4 33 0.6 55 55 NE 3 6 29.94 1014 10 16 0.00 0.00
8:51 am 08:51 Cloudy 49 9.4 34 1.1 56 56 NNE 3 6 29.96 1015 10 16 0.00 0.00
9:51 am 09:51 Cloudy 50 10 35 1.7 57 57 NNE 5 7 29.96 1015 10 16 0.00 0.00
10:51 am 10:51 Cloudy with Light Rain 50 10 37 2.8 61 61 N 6 9 30.00 1016 10 16 0.00 0.03
11:51 am 11:51 Cloudy with Light Rain 50 10 39 3.9 66 66 VRB 6 9 29.99 1016 10 16 0.01 0.25
12:51 pm 12:51 Cloudy with Light Rain 51 10.6 40 4.4 66 66 NNE 7 11 29.95 1014 10 16 0.00 0.03
1:51 pm 13:51 Cloudy 51 10.6 40 4.4 66 66 NNE 8 13 29.95 1014 10 16 0.00 0.03
2:51 pm 14:51 Cloudy 52 11.1 41 5 66 66 NNE 12 19 29.96 1015 10 16 0.00 0.03
3:51 pm 15:51 Cloudy 52 11.1 39 3.9 61 61 N 7 11 29.97 1015 10 16 0.00 0.00
4:12 pm 16:12 Cloudy 51 10.6 40 4.4 66 66 N 9 15 29.99 1016 10 16 0.00 0.00
4:51 pm 16:51 Cloudy 50 10 39 3.9 66 66 NNE 10 17 30.02 1017 10 16 0.00 0.00
5:51 pm 17:51 Cloudy 50 10 40 4.4 68 68 NNW 13 20 30.07 1018 10 16 0.00 0.03
6:51 pm 18:51 Mostly Cloudy 50 10 40 4.4 68 68 N 5 7 30.09 1019 10 16 0.00 0.00
7:51 pm 19:51 Partly Cloudy 50 10 39 3.9 66 66 NNW 12 19 30.14 1021 10 16 0.00 0.00
8:51 pm 20:51 Clear 49 9.4 39 3.9 69 69 NW 6 9 30.16 1021 10 16 0.00 0.00
9:51 pm 21:51 Clear 48 8.9 38 3.3 68 68 NNW 7 11 30.20 1023 10 16 0.00 0.00
10:51 pm 22:51 Clear 47 8.3 36 2.2 66 66 NW 7 11 30.22 1024 10 16 0.00 0.00
11:51 pm 23:51 Clear 45 7.2 35 1.7 68 68 NW 9 15 30.26 1025 10 16 0.00 0.00

Powered by Vaisala Xweather